Location: Unspecified
(49.2170°N, 0.0000°E)
Time: 15:05:02
(UTC+00:00)

A-11 Canister half - Pass Details

Date: 21 June 2019
Orbit: 1526 x 1683 km, 47.3° (Epoch: 19 August)

Event Time Altitude Azimuth Distance (km) Brightness Sun altitude
Rises 09:18:43 0° 282° (WNW) 4,690 11.2 49.0°
Reaches altitude 10° 09:21:47 10° 279° (W) 3,700 10.7 49.5°
Maximum altitude 09:30:57 67° 200° (SSW) 1,640 10.1 50.8°
Drops below altitude 10° 09:40:12 10° 121° (ESE) 3,724 11.9 52.2°
Sets 09:43:17 0° 119° (ESE) 4,721 12.2 52.6°
